Overview Statistics Trail Chart Weather Telemetry Raw packets
 

This is the latest recevied weather packets stored in our database for station/object W7BTL-13. If no packets are shown the sender has not sent any weather packets the latest 10 day(s).

<< 121 122 123 124 125 126 127 >>
Time Temp. Humidity Pressure Rain* Wind** Luminosity Snow
1787767502 33.89° C 46% 1013.2 hPa - - - -
1787767201 33.89° C 47% 1013.2 hPa - - - -
1787766901 33.89° C 48% 1013.2 hPa - - - -
1787766602 33.89° C 47% 1013.2 hPa - - - -
1787766306 33.89° C 44% 1013.2 hPa - - - -
1787766302 33.89° C 44% 1013.2 hPa - - - -
1787766002 33.89° C 44% 1013.2 hPa - - - -
1787765702 33.89° C 44% 1013.2 hPa - - - -
1787765402 33.33° C 44% 1013.2 hPa - - - -
1787765103 32.78° C 47% 1013.2 hPa - - - -
1787764801 32.78° C 46% 1013.2 hPa - - - -
1787764502 32.78° C 46% 1013.2 hPa - - - -
1787764205 32.78° C 49% 1013.2 hPa - - - -
1787764201 32.78° C 49% 1013.2 hPa - - - -
1787763602 32.78° C 49% 1013.2 hPa - - - -
1787763302 32.22° C 49% 1013.2 hPa - - - -
1787763002 32.22° C 49% 1013.2 hPa - - - -
1787762702 31.11° C 51% 1013.2 hPa - - - -
1787762404 31.11° C 49% - - - - -
1787762402 31.11° C 49% 1013.2 hPa - - - -
1787762102 31.11° C 54% 1013.2 hPa - - - -
1787762101 31.11° C 54% 1013.2 hPa - - - -
1787761802 30.56° C 52% 1013.2 hPa - - - -
1787761502 31.11° C 52% 1013.2 hPa - - - -
1787761203 30.56° C 50% 1013.2 hPa - - - -

* Rain since midnight (hover to see other rain measurements)
** Current wind speed in m/s (hover to see current wind gust speed)